This is the latest recevied weather packets stored in our database for station/object YO8SDE-8. If no packets are shown the sender has not sent any weather packets the latest 10 day(s).
| Time | Temp. | Humidity | Pressure | Rain* | Wind** | Luminosity | Snow |
|---|---|---|---|---|---|---|---|
| 1777043231 | 17.78° C | 33% | 998.8 hPa | 0 mm | - | - | - |
| 1777042931 | 18.33° C | 33% | 998.8 hPa | 0 mm | - | - | - |
| 1777042631 | 18.33° C | 33% | 998.7 hPa | 0 mm | - | - | - |
| 1777042331 | 18.33° C | 33% | 998.7 hPa | 0 mm | - | - | - |
| 1777042031 | 18.33° C | 33% | 998.6 hPa | 0 mm | - | - | - |
| 1777041731 | 17.78° C | 34% | 998.5 hPa | 0 mm | - | - | - |
| 1777041431 | 17.78° C | 34% | 998.5 hPa | 0 mm | - | - | - |
| 1777041131 | 17.78° C | 35% | 998.7 hPa | 0 mm | - | - | - |
| 1777040831 | 17.78° C | 36% | 998.4 hPa | 0 mm | - | - | - |
| 1777040531 | 16.67° C | 36% | 998.5 hPa | 0 mm | - | - | - |
| 1777040231 | 17.22° C | 35% | 998.5 hPa | 0 mm | - | - | - |
| 1777039931 | 17.78° C | 34% | 998.5 hPa | 0 mm | - | - | - |
| 1777039631 | 17.78° C | 35% | 998.5 hPa | 0 mm | - | - | - |
| 1777039331 | 17.22° C | 35% | 998.4 hPa | 0 mm | - | - | - |
| 1777039031 | 17.22° C | 35% | 998.3 hPa | 0 mm | - | - | - |
| 1777038731 | 16.67° C | 36% | 998.3 hPa | 0 mm | - | - | - |
| 1777038431 | 16.11° C | 36% | 998.4 hPa | 0 mm | - | - | - |
| 1777038131 | 16.67° C | 35% | 998.3 hPa | 0 mm | - | - | - |
| 1777037831 | 17.78° C | 33% | 998.3 hPa | 0 mm | - | - | - |
| 1777037531 | 18.33° C | 34% | 998.3 hPa | 0 mm | - | - | - |
| 1777037231 | 18.33° C | 33% | 998.3 hPa | 0 mm | - | - | - |
| 1777036931 | 18.89° C | 33% | 998.4 hPa | 0 mm | - | - | - |
| 1777036631 | 18.33° C | 33% | 998.5 hPa | 0 mm | - | - | - |
| 1777036331 | 17.78° C | 34% | 998.5 hPa | 0 mm | - | - | - |
| 1777036031 | 17.78° C | 34% | 998.5 hPa | 0 mm | - | - | - |
* Rain latest hour (hover to see other rain measurements)
** Current wind speed in m/s (hover to see current wind gust speed)